Lansing, MI

9:14 PM EST on February 25, 2018 (GMT -0500)
Capital City

Weather History for KLAN - June, 2007

Change the Weather History Date:

Saturday, June 23, 2007

  Actual Average Record
Temperature  
Mean Temperature 64 °F 70 °F  
Max Temperature 77 °F 81 °F 96 °F (1864)
Min Temperature 54 °F 59 °F 35 °F (1918)
Degree Days  
Heating Degree Days 0 1  
Month to date heating degree days 50  
Since 1 June heating degree days 50  
Since 1 July heating degree days 6707  
Cooling Degree Days 0 6  
Month to date cooling degree days 88  
Year to date cooling degree days 129  
Since 1 June cooling degree days 88  
Growing Degree Days 14 (Base 50)    
Moisture  
Dew Point 48 °F    
Average Humidity 55    
Maximum Humidity 77    
Minimum Humidity 38    
Precipitation  
Precipitation 0.00 in 0.11 in 1.69 in (1968)
Month to date precipitation 2.70  
Year to date precipitation 14.27  
Snow  
Snow 0.00 in 0.00 in 0.00 in ()
Month to date snowfall 0.0  
Since 1 June snowfall 0.0  
Since 1 July snowfall 51.1  
Snow Depth -    
Sea Level Pressure  
Sea Level Pressure 30.03 in    
Wind  
Wind Speed 4 mph (SE)    
Max Wind Speed 12 mph    
Max Gust Speed 16 mph    
Visibility 10 miles    
Events      
T = Trace of Precipitation, MM = Missing Value Source: NWS Daily Summary

Daily Weather History Graph

Daily Weather History Graph

Search for Another Location

Airport or City:

Trip Planner

Search our weather history database for the weather conditions in past years. The results will help you decide how hot, cold, wet, or windy it might be!

Date:

Astronomy

Jun. 23, 2007 Rise Set
Actual Time 6:00 AM EDT 9:20 PM EDT
Civil Twilight 5:25 AM EDT 9:55 PM EDT
Nautical Twilight 4:39 AM EDT 10:41 PM EDT
Astronomical Twilight 3:43 AM EDT 11:37 PM EDT
Moon 2:57 PM EDT (6/23) 1:40 AM EDT (6/23)
Length of Visible Light 16h 30m
Length of Day
15h 20m
First Quarter, 61% of the Moon is Illuminated
Jun 23
First Quarter
Jun 30
Full
Jul 7
Last Quarter
Jul 14
New
Jul 22
First Quarter

Hourly Weather History & Observations

Time (EDT) Temp. Dew Point Humidity Pressure Visibility Wind Dir Wind Speed Gust Speed Precip Events Conditions
12:53 AM 55.9 °F 48.0 °F 75% 30.05 in 10.0 mi Calm Calm - N/A   Partly Cloudy
1:53 AM 55.9 °F 48.0 °F 75% 30.04 in 10.0 mi Calm Calm - N/A   Clear
2:53 AM 55.9 °F 48.0 °F 75% 30.04 in 10.0 mi Calm Calm - N/A   Clear
3:53 AM 54.0 °F 46.9 °F 77% 30.04 in 10.0 mi East 3.5 mph - N/A   Clear
4:53 AM 55.0 °F 46.9 °F 74% 30.05 in 10.0 mi SE 5.8 mph - N/A   Mostly Cloudy
5:53 AM 55.0 °F 46.0 °F 72% 30.06 in 10.0 mi Calm Calm - N/A   Mostly Cloudy
6:53 AM 55.9 °F 46.0 °F 69% 30.08 in 10.0 mi SSE 6.9 mph - N/A   Mostly Cloudy
7:53 AM 59.0 °F 46.0 °F 62% 30.08 in 10.0 mi SSE 9.2 mph - N/A   Mostly Cloudy
8:53 AM 62.1 °F 46.9 °F 58% 30.08 in 10.0 mi SE 8.1 mph - N/A   Mostly Cloudy
9:53 AM 64.0 °F 48.9 °F 58% 30.08 in 10.0 mi SSE 8.1 mph - N/A   Mostly Cloudy
10:53 AM 68.0 °F 48.9 °F 50% 30.06 in 10.0 mi Variable 4.6 mph - N/A   Mostly Cloudy
11:53 AM 70.0 °F 48.9 °F 47% 30.06 in 10.0 mi SE 6.9 mph - N/A   Mostly Cloudy
12:53 PM 71.1 °F 48.0 °F 44% 30.05 in 10.0 mi South 9.2 mph - N/A   Mostly Cloudy
1:53 PM 73.0 °F 48.0 °F 41% 30.03 in 10.0 mi SSE 9.2 mph - N/A   Mostly Cloudy
2:53 PM 75.9 °F 48.9 °F 38% 30.02 in 10.0 mi SE 11.5 mph - N/A   Mostly Cloudy
3:53 PM 75.9 °F 48.9 °F 38% 30.01 in 10.0 mi SSE 10.4 mph 16.1 mph N/A   Mostly Cloudy
4:53 PM 75.9 °F 48.9 °F 38% 29.99 in 10.0 mi East 4.6 mph - N/A   Mostly Cloudy
5:53 PM 75.0 °F 48.9 °F 40% 29.99 in 10.0 mi SE 9.2 mph - N/A   Mostly Cloudy
6:53 PM 73.0 °F 48.9 °F 42% 29.98 in 10.0 mi SSE 8.1 mph - N/A   Mostly Cloudy
7:53 PM 73.0 °F 48.9 °F 42% 29.98 in 10.0 mi SSE 6.9 mph - N/A   Mostly Cloudy
8:53 PM 71.1 °F 48.0 °F 44% 29.99 in 10.0 mi SSE 6.9 mph - N/A   Mostly Cloudy
9:53 PM 69.1 °F 46.9 °F 45% 29.99 in 9.0 mi SE 3.5 mph - N/A   Scattered Clouds
10:53 PM 64.9 °F 50.0 °F 58% 30.01 in 10.0 mi ESE 5.8 mph - N/A   Scattered Clouds
11:53 PM 64.0 °F 51.1 °F 63% 30.01 in 10.0 mi SSE 9.2 mph - N/A   Scattered Clouds